GW6010 Weather Reports


time (UTC)temp
F
wind
direction
speed
knots
gust
knots
rain 1hr
in
rain 24hr
in
rain mn
in
humidity
%
barometer
mb
20260906120021 62 257 0.0 0.0 0.00 0.73 0.00 95 1017.2
20260906114527 62 257 0.0 0.0 0.00 0.73 0.00 96 1017.1
20260906113011 61 258 0.0 0.0 0.00 0.73 0.00 95 1017.0
20260906111523 61 257 0.0 0.9 0.00 0.73 0.00 95 1016.8
20260906110021 61 265 0.0 0.0 0.00 0.73 0.00 95 1016.4
20260906104521 62 265 0.0 0.0 0.00 0.73 0.00 95 1016.2
20260906103025 62 265 0.0 0.0 0.00 0.73 0.00 95 1015.9
20260906101510 62 253 0.9 1.7 0.00 0.73 0.00 95 1015.8
20260906100014 62 269 0.0 0.9 0.00 0.73 0.00 95 1015.7
20260906094519 62 281 0.0 0.9 0.00 0.73 0.00 95 1015.7
20260906093025 62 294 0.0 0.0 0.00 0.73 0.00 95 1015.7
20260906091533 62 295 0.9 2.6 0.00 0.73 0.00 95 1015.8
20260906090012 62 260 0.9 1.7 0.00 0.73 0.00 95 1015.5
20260906084517 62 259 0.0 0.0 0.00 0.73 0.00 94 1015.7
20260906083032 62 260 0.0 0.0 0.00 0.73 0.00 95 1015.7
20260906081529 62 260 0.0 0.0 0.00 0.73 0.00 94 1015.6
20260906080032 63 262 0.0 0.9 0.00 0.73 0.00 94 1015.6
20260906074512 63 280 0.0 0.0 0.00 0.73 0.00 94 1015.4
20260906073021 63 279 0.0 1.7 0.00 0.73 0.00 94 1015.5
20260906071524 63 281 0.0 0.9 0.00 0.73 0.00 94 1015.4
20260906070031 63 251 0.0 1.7 0.00 0.73 0.00 94 1015.6
20260906064530 63 290 0.0 0.0 0.00 0.73 0.00 94 1015.7
20260906063017 64 274 0.0 0.0 0.00 0.73 0.00 94 1015.9
20260906061526 64 278 0.0 0.0 0.00 0.73 0.00 94 1015.9
20260906060006 64 274 0.0 0.0 0.00 0.73 0.00 94 1016.2
20260906054509 64 274 0.0 0.0 0.00 0.73 0.00 94 1016.2
20260906053014 64 275 0.0 0.9 0.00 0.73 0.00 93 1016.2
20260906051520 65 265 0.0 1.7 0.00 0.73 0.00 94 1016.2
20260906050006 65 262 0.0 0.9 0.00 0.73 0.00 94 1016.1
20260906044505 65 237 0.0 0.0 0.00 0.73 0.00 94 1016.0
20260906043009 65 237 0.0 0.0 0.00 0.73 0.00 94 1016.0
20260906041516 65 198 0.0 0.0 0.00 0.73 0.00 93 1016.2
20260906040023 64 254 0.0 1.7 0.00 0.73 0.00 93 1016.4
20260906034506 65 259 0.0 0.0 0.00 0.73 0.73 93 1016.6
20260906033018 65 255 0.0 0.0 0.00 0.73 0.73 93 1016.7
20260906031509 65 251 0.0 0.0 0.00 0.73 0.73 93 1017.0
20260906030021 65 251 0.0 0.0 0.00 0.73 0.73 93 1017.0
20260906024525 64 251 0.0 0.0 0.00 0.73 0.73 92 1016.9
20260906023005 64 251 0.0 0.0 0.00 0.73 0.73 92 1016.7
20260906021508 64 251 0.0 0.0 0.00 0.73 0.73 92 1016.7
20260906020014 64 244 0.0 0.0 0.00 0.73 0.73 91 1016.6
20260906014526 65 244 0.0 0.0 0.00 0.73 0.73 91 1016.5
20260906013031 65 244 0.0 0.9 0.00 0.73 0.73 91 1016.3
20260906011505 66 244 0.0 0.0 0.00 0.73 0.73 90 1016.0
20260906010010 66 244 0.0 0.0 0.00 0.73 0.73 89 1015.8
20260906004516 67 244 0.0 0.0 0.00 0.73 0.73 89 1015.7
20260906003021 68 244 0.0 0.0 0.00 0.73 0.73 88 1015.6
20260906001525 68 244 0.9 1.7 0.00 0.73 0.73 87 1015.8
20260906000026 70 244 0.0 0.9 0.00 0.73 0.73 85 1015.6
20260905234509 71 244 0.0 0.9 0.00 0.73 0.73 83 1015.7
20260905233019 72 242 0.9 2.6 0.00 0.73 0.73 80 1015.6
20260905231525 75 269 0.9 2.6 0.00 0.73 0.73 75 1015.8
20260905230027 76 288 1.7 4.3 0.00 0.73 0.73 72 1015.7
20260905224508 76 271 0.9 6.1 0.00 0.73 0.73 72 1015.8
20260905223016 77 237 1.7 4.3 0.00 0.73 0.73 71 1015.9
20260905221519 77 265 2.6 5.2 0.00 0.73 0.73 69 1015.7
20260905220029 78 279 2.6 5.2 0.00 0.73 0.73 69 1015.1
20260905214529 78 318 1.7 6.1 0.00 0.73 0.73 68 1015.1
20260905213011 79 312 1.7 6.1 0.00 0.73 0.73 66 1015.0
20260905211516 80 320 3.5 7.8 0.00 0.73 0.73 64 1014.9
20260905210022 80 33 2.6 7.8 0.00 0.73 0.73 64 1014.7
20260905204535 80 37 1.7 8.7 0.00 0.73 0.73 65 1014.6
20260905203031 81 314 2.6 7.0 0.00 0.73 0.73 65 1014.7
20260905201514 80 274 4.3 10.4 0.00 0.73 0.73 65 1014.7
20260905200026 80 281 1.7 6.1 0.00 0.73 0.73 66 1014.7
20260905194524 80 310 3.5 7.8 0.00 0.73 0.73 66 1014.8
20260905193029 79 283 1.7 9.6 0.00 0.73 0.73 67 1015.3
20260905191530 79 60 2.6 11.3 0.00 0.73 0.73 65 1015.4
20260905190016 79 259 2.6 9.6 0.00 0.73 0.73 67 1015.9
20260905184542 79 29 2.6 7.8 0.00 0.73 0.73 67 1016.1
20260905183040 78 35 1.7 7.0 0.00 0.73 0.73 68 1016.2
20260905181537 77 283 2.6 7.0 0.00 0.73 0.73 69 1016.1
20260905180011 76 259 1.7 9.6 0.00 0.73 0.73 75 1016.4
20260905174517 76 236 1.7 8.7 0.00 0.73 0.73 73 1016.7
20260905173004 76 277 3.5 8.7 0.00 0.73 0.73 74 1017.1
20260905171508 76 285 4.3 8.7 0.00 0.73 0.73 74 1017.0
20260905170008 75 22 0.0 3.5 0.00 0.73 0.73 80 1017.2
20260905164518 75 241 1.7 2.6 0.00 0.73 0.73 80 1017.1
20260905163018 72 231 0.9 2.6 0.00 0.73 0.73 82 1017.1
20260905161504 71 47 0.9 4.3 0.00 0.73 0.73 86 1017.3
20260905160006 70 291 0.9 2.6 0.01 0.73 0.73 87 1016.8
20260905154512 69 230 0.0 2.6 0.01 0.73 0.73 90 1016.8
20260905153018 69 244 0.0 2.6 0.01 0.73 0.73 90 1016.8
20260905151526 69 136 0.0 3.5 0.01 0.73 0.73 89 1017.8
20260905150003 68 251 1.7 4.3 0.00 0.72 0.72 89 1018.3
20260905144507 67 143 2.6 3.5 0.01 0.72 0.72 91 1018.3
20260905143015 67 227 0.9 3.5 0.07 0.72 0.72 91 1018.0
20260905141527 66 75 0.9 2.6 0.69 0.72 0.72 92 1018.2
20260905140028 66 125 0.9 4.3 0.69 0.72 0.72 91 1018.7
20260905134505 66 349 2.6 8.7 0.71 0.71 0.71 91 1018.9
20260905133013 66 49 1.7 17.4 0.65 0.65 0.65 91 1019.2
20260905131515 66 82 5.2 15.6 0.03 0.03 0.03 97 1019.1
20260905130020 62 259 0.0 0.0 0.03 0.03 0.03 95 1017.0
20260905124531 62 262 0.0 0.0 0.00 0.00 0.00 95 1017.2
20260905123008 62 262 0.0 0.0 0.00 0.00 0.00 95 1017.2
20260905121512 62 257 0.0 0.0 0.00 0.00 0.00 95 1017.4